Regional Weather Roundup
Issued by NWS State College, PA

Home | Current Version | Previous Version | Graphics & Text | Print | Product List | Glossary On
Versions: 1 2 3 4 5 6 7 8 9 10 11 12 13 14 15 16 17 18 19 20 21 22 23 24 25 26 27 28 29 30 31 32 33 34 35 36 37 38 39 40 41 42 43 44 45 46 47 48 49 50
000
ASUS41 KCTP 270910
RWRCTP

REGIONAL WEATHER ROUNDUP
NATIONAL WEATHER SERVICE STATE COLLEGE PA
500 AM EDT TUE SEP 27 2016

Note: "fair" indicates few or no clouds below 12,000 feet with no
significant weather and/or obstructions to visibility.

* = STATION THAT DOES NOT REPORT PRECIPITATION /E.G. RAIN...SNOW...ETC/
    THUNDER OR FOG.

PAZ002>004-007>009-013>016-020>023-029>032-271000-
WESTERN PENNSYLVANIA

CITY           SKY/WX    TMP DP  RH WIND       PRES   REMARKS
ERIE           CLEAR     55  48  77 S12       29.88F
MEADVILLE      CLEAR     50  47  89 S6        29.93S
FRANKLIN*        N/A     48  45  87 SW7       29.96R
NEW CASTLE     FAIR      52  51  97 VRB6      29.96S
BEAVER COUNTY  NOT AVBL
BUTLER*        CLEAR     52  48  87 S6        29.99F
PITTSBURGH INT CLEAR     52  52 100 S5        29.97S
PITTSBURGH     CLEAR     53  50  89 S9        29.97F
INDIANA*       CLOUDY    55  55 100 SW8       30.01F FOG
LATROBE        CLEAR     52  52 100 S7        30.00F
WASHINGTON CO* CLEAR     48  45  87 CALM      29.99F
$$

PAZ004>006-010>012-017>019-024>028-033>037-041-042-045-046-049>053-271000-
CENTRAL PENNSYLVANIA

CITY           SKY/WX    TMP DP  RH WIND       PRES   REMARKS
BRADFORD       CLEAR     49  49 100 SW5       29.94S
DUBOIS         CLEAR     50  47  89 SW5       29.96S
CLEARFIELD     MOCLDY    52  52 100 SW6       29.97S FOG
JOHNSTOWN      CLEAR     50  49  96 SW6       29.99F
ALTOONA        CLEAR     53  50  89 S5        29.98F
STATE COLLEGE  CLEAR     52  51  97 S3        29.96F
WILLIAMSPORT   CLOUDY    61  60  97 W6        29.92S
SELINSGROVE    CLOUDY    58  58 100 CALM      29.95S FOG
FT INDIANTOWN  FOG       57  57 100 S2        29.93S VSB 1/4
CAPITAL CITY   CLOUDY    63  61  93 W5        29.94S FOG
HARRISBURG     CLOUDY    63  63 100 W5        29.93S FOG
YORK           CLOUDY    63  63 100 NW3       29.94S FOG
$$

PAZ038>040-043-044-047-048-054-055-060>062-067>071-271000-
EASTERN PENNSYLVANIA

CITY           SKY/WX    TMP DP  RH WIND       PRES   REMARKS
SCRANTON       CLOUDY    60  59  96 SW5       29.92S
MOUNT POCONO   CLOUDY    56  55  97 W9        29.93S
ALLENTOWN      CLOUDY    61  59  93 W3        29.93R
QUAKERTOWN*    CLOUDY    61  61 100 SW3       29.94R
READING        CLOUDY    61  59  93 W3        29.93R
LANCASTER      CLOUDY    63  63 100 W5        29.94R FOG
COATESVILLE    CLOUDY    63  63 100 W5        29.95S
POTTSTOWN      CLOUDY    61  61 100 NW3       29.94S
BLUE BELL      CLOUDY    63  63 100 CALM      29.91F
DOYLESTOWN     CLOUDY    64  63  96 VRB5      29.92R
WILLOW GROVE   NOT AVBL
NORTH PHILA    LGT RAIN  68  65  90 W9        29.93S
PHILADELPHIA   LGT RAIN  67  65  93 SW13      29.92S
$$



USA.gov is the U.S. government's official web portal to all federal, state and local government web resources and services.